DW8052 Weather Reports


time (UTC)temp
F
wind
direction
speed
knots
gust
knots
rain 1hr
in
rain 24hr
in
rain mn
in
humidity
%
barometer
mb
20260902024205 79 267 12.2 18.2 0.00 0.00 0.00 29 1013.3
20260902023706 79 280 13.9 19.1 0.00 0.00 0.00 30 1013.2
20260902022705 79 280 7.8 20.9 0.00 0.00 0.00 31 1013.4
20260902022205 78 274 13.9 20.0 0.00 0.00 0.00 31 1013.5
20260902021205 78 301 10.4 19.1 0.00 0.00 0.00 32 1013.9
20260902020705 78 287 13.0 19.1 0.00 0.00 0.00 32 1013.9
20260902020205 78 297 14.8 19.1 0.00 0.00 0.00 32 1014.2
20260902015705 78 306 8.7 17.4 0.00 0.00 0.00 33 1014.1
20260902015205 78 300 10.4 13.9 0.00 0.00 0.00 33 1014.1
20260902014705 77 318 4.3 12.2 0.00 0.00 0.00 36 1014.2
20260902014205 77 339 8.7 12.2 0.00 0.00 0.00 37 1014.6
20260902013706 76 303 7.8 14.8 0.00 0.00 0.00 36 1014.4
20260902013205 76 343 7.0 13.0 0.00 0.00 0.00 37 1014.6
20260902012705 76 316 11.3 18.2 0.00 0.00 0.00 37 1014.8
20260902012205 76 314 12.2 17.4 0.00 0.00 0.00 37 1015.0
20260902011705 76 301 11.3 17.4 0.00 0.00 0.00 38 1015.1
20260902011205 75 313 10.4 15.6 0.00 0.00 0.00 38 1015.2
20260902010705 75 303 11.3 14.8 0.00 0.00 0.00 38 1015.3
20260902010205 75 298 10.4 14.8 0.00 0.00 0.00 39 1015.4
20260902005705 74 316 10.4 15.6 0.00 0.00 0.00 39 1015.4
20260902005205 74 327 12.2 17.4 0.00 0.00 0.00 40 1015.5
20260902004705 74 308 12.2 18.2 0.00 0.00 0.00 40 1015.4
20260902004206 74 301 13.9 18.2 0.00 0.00 0.00 40 1015.6
20260902003705 73 316 13.0 17.4 0.00 0.00 0.00 41 1015.7
20260902003205 72 320 11.3 15.6 0.00 0.00 0.00 41 1015.7
20260902002705 72 314 13.9 19.1 0.00 0.00 0.00 42 1015.9
20260902002205 72 315 18.2 20.9 0.00 0.00 0.00 42 1015.8
20260902001704 72 318 7.8 18.2 0.00 0.00 0.00 42 1015.7
20260902001205 72 321 11.3 17.4 0.00 0.00 0.00 42 1015.8
20260902000705 72 326 7.8 14.8 0.00 0.00 0.00 43 1016.1
20260901235705 72 319 15.6 20.9 0.00 0.00 0.00 41 1016.0
20260901235205 72 319 14.8 20.0 0.00 0.00 0.00 41 1016.0
20260901234705 72 322 12.2 17.4 0.00 0.00 0.00 42 1016.1
20260901234205 71 332 12.2 17.4 0.00 0.00 0.00 44 1016.1
20260901232705 70 329 8.7 15.6 0.00 0.00 0.00 46 1016.4
20260901232205 69 333 10.4 17.4 0.00 0.00 0.00 47 1016.5
20260901231205 68 328 8.7 11.3 0.00 0.00 0.00 50 1016.6
20260901230704 68 331 8.7 10.4 0.00 0.00 0.00 49 1016.5
20260901230204 68 335 7.0 10.4 0.00 0.00 0.00 49 1016.6
20260901225705 68 324 7.8 11.3 0.00 0.00 0.00 49 1016.5
20260901225205 67 330 9.6 12.2 0.00 0.00 0.00 50 1016.7
20260901224705 67 322 10.4 13.0 0.00 0.00 0.00 50 1016.6
20260901224204 67 323 10.4 12.2 0.00 0.00 0.00 50 1016.5
20260901223704 67 321 10.4 12.2 0.00 0.00 0.00 50 1016.6
20260901223206 66 326 8.7 12.2 0.00 0.00 0.00 51 1016.8
20260901222705 66 326 9.6 12.2 0.00 0.00 0.00 51 1016.6
20260901221704 66 328 8.7 12.2 0.00 0.00 0.00 52 1016.7
20260901221205 65 323 8.7 11.3 0.00 0.00 0.00 52 1016.8
20260901220704 65 328 8.7 11.3 0.00 0.00 0.00 52 1016.8
20260901220205 65 324 7.8 10.4 0.00 0.00 0.00 52 1016.8
20260901215205 65 326 8.7 11.3 0.00 0.00 0.00 53 1016.9
20260901214204 65 327 7.8 10.4 0.00 0.00 0.00 53 1016.8
20260901213705 64 321 8.7 10.4 0.00 0.00 0.00 53 1016.8
20260901213205 64 322 8.7 11.3 0.00 0.00 0.00 53 1017.0
20260901212704 64 318 7.8 11.3 0.00 0.00 0.00 53 1016.9
20260901212204 64 315 9.6 11.3 0.00 0.00 0.00 53 1016.9
20260901211704 64 318 9.6 12.2 0.00 0.00 0.00 53 1016.8
20260901211205 64 315 9.6 12.2 0.00 0.00 0.00 53 1016.5
20260901210705 64 316 10.4 11.3 0.00 0.00 0.00 53 1016.7
20260901210205 64 317 10.4 12.2 0.00 0.00 0.00 53 1016.8
20260901204705 64 305 11.3 13.0 0.00 0.00 0.00 53 1016.7
20260901204204 64 306 10.4 11.3 0.00 0.00 0.00 53 1016.7
20260901203704 65 312 8.7 11.3 0.00 0.00 0.00 52 1016.7
20260901203205 65 314 11.3 12.2 0.00 0.00 0.00 52 1016.9
20260901202705 65 306 11.3 12.2 0.00 0.00 0.00 52 1016.9
20260901202204 64 303 10.4 11.3 0.00 0.00 0.00 53 1016.7
20260901200704 63 282 10.4 12.2 0.00 0.00 0.00 57 1017.1
20260901200204 63 275 7.8 8.7 0.00 0.00 0.00 58 1016.8
20260901193705 63 248 8.7 11.3 0.00 0.00 0.00 59 1016.7
20260901193205 64 311 7.8 8.7 0.00 0.00 0.00 59 1016.3
20260901192705 64 329 6.1 10.4 0.00 0.00 0.00 58 1016.1
20260901192204 64 332 6.1 10.4 0.00 0.00 0.00 58 1016.2
20260901191705 64 329 7.8 8.7 0.00 0.00 0.00 58 1016.2
20260901191205 63 330 7.8 10.4 0.00 0.00 0.00 57 1016.1
20260901190705 64 337 6.1 10.4 0.00 0.00 0.00 59 1016.0
20260901190204 64 341 6.1 10.4 0.00 0.00 0.00 58 1016.1
20260901185704 63 350 7.8 10.4 0.00 0.00 0.00 57 1016.1
20260901184205 63 348 7.8 10.4 0.00 0.00 0.00 60 1015.9
20260901183704 63 352 7.8 10.4 0.00 0.00 0.00 60 1016.0
20260901183205 63 342 7.0 8.7 0.00 0.00 0.00 60 1015.9
20260901182704 63 343 7.0 8.7 0.00 0.00 0.00 61 1016.0
20260901181204 63 355 5.2 7.8 0.00 0.00 0.00 60 1015.7
20260901180704 62 1 5.2 7.8 0.00 0.00 0.00 60 1015.7
20260901175704 62 348 6.1 7.8 0.00 0.00 0.00 61 1015.7
20260901175204 63 347 4.3 7.8 0.00 0.00 0.00 61 1015.6
20260901174204 63 345 6.1 7.0 0.00 0.00 0.00 58 1015.6
20260901173704 62 343 6.1 7.0 0.00 0.00 0.00 56 1015.5
20260901173204 62 342 6.1 7.8 0.00 0.00 0.00 56 1015.5
20260901172704 63 337 6.1 7.0 0.00 0.00 0.00 55 1015.7
20260901172204 63 343 4.3 7.0 0.00 0.00 0.00 55 1015.8
20260901171704 63 352 5.2 6.1 0.00 0.00 0.00 54 1015.7
20260901170204 63 342 7.0 8.7 0.00 0.00 0.00 54 1015.9
20260901165221 64 327 8.7 10.4 0.00 0.00 0.00 53 1016.0
20260901164720 64 325 8.7 10.4 0.00 0.00 0.00 53 1016.0
20260901164221 64 322 8.7 10.4 0.00 0.00 0.00 52 1016.0
20260901163721 64 331 8.7 10.4 0.00 0.00 0.00 52 1016.1
20260901163221 64 331 7.8 8.7 0.00 0.00 0.00 52 1016.1
20260901162721 64 324 7.0 7.8 0.00 0.00 0.00 52 1016.5
20260901162220 64 324 6.1 7.0 0.00 0.00 0.00 52 1016.6
20260901161721 64 324 5.2 6.1 0.00 0.00 0.00 52 1016.5
20260901160221 65 324 5.2 7.0 0.00 0.00 0.00 52 1016.6
20260901155721 65 330 5.2 6.1 0.00 0.00 0.00 51 1016.6
20260901155221 65 334 4.3 5.2 0.00 0.00 0.00 51 1016.7
20260901154721 65 333 4.3 5.2 0.00 0.00 0.00 51 1017.0
20260901153721 65 341 4.3 6.1 0.00 0.00 0.00 51 1017.0
20260901153220 65 346 6.1 7.0 0.00 0.00 0.00 51 1017.0
20260901152721 65 346 6.1 7.8 0.00 0.00 0.00 51 1016.9
20260901152221 65 350 6.1 7.8 0.00 0.00 0.00 51 1017.1
20260901151721 65 353 6.1 7.0 0.00 0.00 0.00 51 1017.0
20260901151221 65 353 5.2 7.8 0.00 0.00 0.00 51 1017.0
20260901150721 65 357 5.2 7.8 0.00 0.00 0.00 51 1017.1
20260901150221 65 355 4.3 7.0 0.00 0.00 0.00 52 1017.1
20260901145720 65 1 5.2 7.0 0.00 0.00 0.00 52 1017.2
20260901145220 65 358 5.2 6.1 0.00 0.00 0.00 53 1017.3
20260901144721 65 347 4.3 7.8 0.00 0.00 0.00 52 1017.2
20260901143721 65 353 6.1 8.7 0.00 0.00 0.00 50 1017.2
20260901143221 65 345 6.1 7.8 0.00 0.00 0.00 49 1017.3
20260901142720 65 347 6.1 8.7 0.00 0.00 0.00 49 1017.2
20260901142220 65 338 6.1 7.8 0.00 0.00 0.00 49 1017.3
20260901141720 65 332 6.1 8.7 0.00 0.00 0.00 49 1017.2
20260901141221 65 333 7.0 7.8 0.00 0.00 0.00 49 1017.2
20260901140721 65 337 6.1 10.4 0.00 0.00 0.00 48 1017.3
20260901140220 65 328 8.7 10.4 0.00 0.00 0.00 48 1017.4
20260901135721 65 321 7.8 10.4 0.00 0.00 0.00 48 1017.4
20260901133721 66 333 5.2 7.0 0.00 0.00 0.00 49 1017.8
20260901133220 66 328 5.2 7.0 0.00 0.00 0.00 49 1017.7
20260901132221 66 341 5.2 7.0 0.00 0.00 0.00 48 1018.0
20260901131720 66 352 4.3 7.0 0.00 0.00 0.00 47 1017.8
20260901131220 66 0 6.1 7.8 0.00 0.00 0.00 47 1017.9
20260901130721 66 1 6.1 8.7 0.00 0.00 0.00 47 1018.1
20260901130221 66 3 6.1 8.7 0.00 0.00 0.00 46 1017.9
20260901125720 66 358 6.1 8.7 0.00 0.00 0.00 46 1017.9
20260901125221 67 1 6.1 7.8 0.00 0.00 0.00 46 1017.9
20260901124721 67 0 5.2 7.0 0.00 0.00 0.00 46 1018.2
20260901124221 67 351 5.2 7.8 0.00 0.00 0.00 46 1018.0
20260901123721 67 352 6.1 10.4 0.00 0.00 0.00 45 1018.0
20260901123221 67 346 7.8 10.4 0.00 0.00 0.00 46 1018.2
20260901122720 67 345 7.0 10.4 0.00 0.00 0.00 47 1018.3
20260901122221 67 341 8.7 10.4 0.00 0.00 0.00 48 1018.0
20260901121720 67 338 7.8 10.4 0.00 0.00 0.00 47 1018.3
20260901121221 68 343 7.8 11.3 0.00 0.00 0.00 46 1018.1
20260901120721 68 341 6.1 10.4 0.00 0.00 0.00 45 1018.1
20260901120221 68 349 8.7 11.3 0.00 0.00 0.00 45 1018.2
20260901115720 69 350 11.3 13.0 0.00 0.00 0.00 44 1018.2
20260901115220 69 348 10.4 13.0 0.00 0.00 0.00 43 1018.3
20260901114720 69 344 10.4 12.2 0.00 0.00 0.00 42 1018.3
20260901114220 69 332 11.3 14.8 0.00 0.00 0.00 42 1018.4
20260901113720 69 325 11.3 14.8 0.00 0.00 0.00 41 1018.7
20260901113220 69 323 11.3 13.0 0.00 0.00 0.00 41 1018.9
20260901112720 69 316 10.4 11.3 0.00 0.00 0.00 41 1019.0
20260901112220 69 321 9.6 12.2 0.00 0.00 0.00 40 1019.1
20260901111720 69 318 10.4 12.2 0.00 0.00 0.00 39 1019.2
20260901111220 69 307 10.4 11.3 0.00 0.00 0.00 39 1019.0
20260901110720 69 318 10.4 11.3 0.00 0.00 0.00 38 1019.1
20260901110220 70 310 10.4 13.0 0.00 0.00 0.00 38 1019.2
20260901105721 70 307 11.3 13.9 0.00 0.00 0.00 38 1019.2
20260901105220 70 307 12.2 13.0 0.00 0.00 0.00 38 1019.3
20260901104220 70 303 11.3 14.8 0.00 0.00 0.00 38 1019.2
20260901103220 70 301 11.3 13.9 0.00 0.00 0.00 38 1019.2
20260901102720 70 299 11.3 13.0 0.00 0.00 0.00 37 1019.3
20260901102220 70 301 10.4 12.2 0.00 0.00 0.00 36 1019.2
20260901101720 70 312 7.8 10.4 0.00 0.00 0.00 36 1019.3
20260901101220 71 323 6.1 8.7 0.00 0.00 0.00 35 1019.4
20260901100220 71 327 8.7 11.3 0.00 0.00 0.00 34 1019.4
20260901095720 71 311 10.4 13.9 0.00 0.00 0.00 34 1019.3
20260901095220 71 316 11.3 14.8 0.00 0.00 0.00 34 1019.4
20260901094720 71 307 11.3 13.0 0.00 0.00 0.00 34 1019.6
20260901094220 71 308 11.3 13.9 0.00 0.00 0.00 34 1019.5
20260901093720 71 307 11.3 13.9 0.00 0.00 0.00 34 1019.5
20260901093220 71 306 12.2 14.8 0.00 0.00 0.00 34 1019.4
20260901092720 71 302 11.3 13.0 0.00 0.00 0.00 34 1019.4
20260901092221 71 309 10.4 13.0 0.00 0.00 0.00 34 1019.4
20260901091720 71 305 9.6 12.2 0.00 0.00 0.00 33 1019.4
20260901091220 71 302 10.4 13.0 0.00 0.00 0.00 33 1019.4
20260901090720 71 305 10.4 13.0 0.00 0.00 0.00 33 1019.2
20260901090220 72 311 10.4 13.0 0.00 0.00 0.00 33 1019.2
20260901085220 72 314 10.4 13.0 0.00 0.00 0.00 33 1019.0
20260901084720 72 310 10.4 13.0 0.00 0.00 0.00 33 1019.1
20260901083220 73 302 11.3 13.9 0.00 0.00 0.00 32 1019.0
20260901082720 73 299 11.3 14.8 0.00 0.00 0.00 32 1018.9
20260901082220 73 305 10.4 13.9 0.00 0.00 0.00 32 1018.9
20260901081219 73 303 10.4 17.4 0.00 0.00 0.00 32 1018.9
20260901080720 73 303 11.3 14.8 0.00 0.00 0.00 31 1018.8
20260901080220 74 302 11.3 15.6 0.00 0.00 0.00 31 1018.8
20260901075720 74 303 12.2 17.4 0.00 0.00 0.00 30 1018.8
20260901074720 74 303 11.3 15.6 0.00 0.00 0.00 30 1018.6
20260901074220 74 313 11.3 19.1 0.00 0.00 0.00 30 1018.4
20260901073720 74 302 11.3 15.6 0.00 0.00 0.00 29 1018.5
20260901073220 75 300 15.6 20.0 0.00 0.00 0.00 29 1018.3
20260901072219 75 301 13.9 18.2 0.00 0.00 0.00 29 1018.5
20260901071720 75 308 13.9 20.9 0.00 0.00 0.00 28 1018.2
20260901070719 76 316 15.6 22.6 0.00 0.00 0.00 29 1018.1
20260901070219 76 307 14.8 19.1 0.00 0.00 0.00 29 1018.1
20260901065720 76 307 12.2 21.7 0.00 0.00 0.00 30 1018.3
20260901065219 75 314 8.7 13.9 0.00 0.00 0.00 32 1018.0
20260901064720 74 315 7.0 13.0 0.00 0.00 0.00 36 1018.2
20260901064220 72 316 4.3 6.1 0.00 0.00 0.00 43 1018.4
20260901063719 70 331 3.5 7.8 0.00 0.00 0.00 52 1018.4
20260901063220 70 30 7.0 10.4 0.00 0.00 0.00 58 1018.4
20260901062720 69 31 7.8 10.4 0.00 0.00 0.00 58 1018.4
20260901062220 69 34 7.8 10.4 0.00 0.00 0.00 60 1018.4
20260901061719 69 39 7.8 10.4 0.00 0.00 0.00 59 1018.3
20260901061220 69 35 7.8 10.4 0.00 0.00 0.00 61 1018.5
20260901060720 68 39 10.4 11.3 0.00 0.00 0.00 64 1018.6
20260901055720 68 49 8.7 10.4 0.00 0.00 0.00 66 1018.7
20260901055220 68 48 7.8 10.4 0.00 0.00 0.00 66 1018.7
20260901054720 67 39 7.8 8.7 0.00 0.00 0.00 67 1018.8
20260901054220 67 44 10.4 12.2 0.00 0.00 0.00 69 1018.7
20260901053719 67 51 9.6 11.3 0.00 0.00 0.00 69 1018.9
20260901052720 67 46 7.8 13.9 0.00 0.00 0.00 68 1018.9
20260901052220 67 50 10.4 13.0 0.00 0.00 0.00 68 1019.0
20260901051719 67 46 10.4 12.2 0.00 0.00 0.00 68 1019.2
20260901051220 67 49 11.3 14.8 0.00 0.00 0.00 67 1019.2
20260901050720 67 47 12.2 13.9 0.00 0.00 0.00 67 1019.1
20260901050219 67 46 12.2 14.8 0.00 0.00 0.00 66 1019.0
20260901045720 67 45 12.2 13.9 0.00 0.00 0.00 66 1019.0
20260901045220 67 51 12.2 14.8 0.00 0.00 0.00 65 1019.3
20260901044720 67 46 11.3 13.9 0.00 0.00 0.00 65 1019.2
20260901044219 67 51 12.2 14.8 0.00 0.00 0.00 64 1019.3
20260901043719 67 46 12.2 13.0 0.00 0.00 0.00 63 1019.2
20260901043220 67 45 11.3 13.9 0.00 0.00 0.00 65 1019.5
20260901042220 67 46 11.3 14.8 0.00 0.00 0.00 66 1019.5
20260901041719 67 43 12.2 14.8 0.00 0.00 0.00 66 1019.7
20260901041220 67 48 10.4 13.9 0.00 0.00 0.00 66 1019.6
20260901040719 67 48 12.2 14.8 0.00 0.00 0.00 66 1019.8
20260901035720 67 43 11.3 14.8 0.00 0.00 0.00 64 1019.9
20260901035219 66 44 12.2 15.6 0.00 0.00 0.00 66 1019.9
20260901034719 66 51 11.3 15.6 0.00 0.00 0.00 67 1020.0
20260901033719 67 51 12.2 14.8 0.00 0.00 0.00 66 1020.3
20260901033219 67 51 10.4 13.9 0.00 0.00 0.00 66 1020.4
20260901032719 67 47 12.2 14.8 0.00 0.00 0.00 64 1020.4
20260901032220 67 53 13.0 13.9 0.00 0.00 0.00 64 1020.4
20260901031719 67 52 11.3 13.0 0.00 0.00 0.00 63 1020.5
20260901031219 67 58 12.2 13.0 0.00 0.00 0.00 64 1020.6
20260901030720 67 53 8.7 13.0 0.00 0.00 0.00 64 1020.6
20260901025719 67 49 8.7 11.3 0.00 0.00 0.00 63 1020.9
20260901024719 69 67 10.4 11.3 0.00 0.00 0.00 60 1021.1